EHI
0 0 0 0 0 0 0 0 0 0 0 0 1 4 8 11 12 15 19 21 17 15 22 35 42 41 40 37 32 27 21 15 10 7 4 2 1 0 0 0 1 1 2 4
0 0 0 0 0 0 0 0 0 0 0 0 1 3 7 10 11 13 17 21 21 20 26 40 48 47 44 40 35 30 25 19 13 8 4 3 1 0 0 0 0 1 2 4
0 0 0 0 0 0 0 0 0 0 0 0 0 1 4 8 10 11 14 20 24 26 31 42 51 53 49 44 39 35 32 27 18 11 7 5 4 2 0 0 0 1 2 3
0 0 0 0 0 0 0 0 0 0 0 0 0 0 2 6 10 11 14 19 24 28 34 41 48 51 50 47 43 39 37 34 26 18 14 10 7 3 1 0 0 1 1 2
0 0 0 0 0 0 0 0 0 0 0 0 0 0 2 7 10 12 14 17 22 29 34 39 43 46 48 49 47 43 41 40 33 26 21 16 10 4 1 1 1 0 0 1
0 0 0 0 0 0 0 0 0 0 0 0 0 0 2 5 8 10 11 15 23 30 35 37 39 42 46 50 52 50 47 43 38 32 26 20 13 7 4 2 2 1 1 1
0 0 0 0 0 0 0 0 0 0 0 0 0 0 1 3 6 9 10 14 22 30 36 37 36 38 43 50 55 57 54 47 41 35 29 22 17 12 7 4 3 3 4 4
0 0 0 0 0 0 0 0 0 0 0 0 0 0 1 3 7 10 11 14 20 28 35 39 37 36 41 49 55 58 58 52 45 40 32 24 19 16 10 5 4 4 5 6
0 0 0 0 0 0 0 0 0 0 0 0 0 0 1 3 7 10 13 16 20 25 32 38 37 34 39 47 52 57 59 56 51 45 37 29 23 18 13 9 8 8 9 9
0 0 0 0 0 0 0 0 0 0 0 0 0 0 1 4 7 9 13 17 20 23 28 32 33 33 39 45 51 56 59 59 56 50 43 35 29 23 18 15 14 14 13 14
0 0 0 0 0 0 0 0 0 0 0 0 0 0 2 5 8 10 14 18 22 25 26 27 28 30 37 44 51 57 62 62 58 52 47 41 34 29 25 20 18 16 16 15
0 0 0 0 0 0 0 0 0 0 0 0 0 0 3 7 11 13 18 21 23 25 26 26 28 30 34 41 49 55 61 62 59 55 50 44 38 34 30 25 19 17 16 16
0 0 0 0 0 0 0 0 0 0 0 0 0 1 5 11 15 18 21 24 24 25 27 28 30 32 34 38 43 48 53 57 58 56 51 45 41 38 35 29 23 19 17 17
0 0 0 0 0 0 0 0 0 0 0 0 1 3 7 12 16 20 24 26 26 27 29 30 30 31 33 35 38 41 46 52 54 53 50 44 40 39 37 32 28 24 20 19
0 0 0 0 0 0 0 0 0 0 0 1 2 4 8 12 15 19 24 26 26 27 29 29 28 26 27 29 33 37 44 49 50 50 49 43 38 37 37 36 32 28 24 23
0 0 0 0 0 0 0 0 0 0 0 1 2 5 10 13 15 19 21 22 22 22 24 24 23 20 21 24 28 33 38 42 45 47 45 40 35 34 37 38 35 30 26 25
0 0 0 0 0 0 0 0 0 1 2 2 4 8 13 16 17 20 20 20 19 18 18 18 17 17 21 24 26 29 32 35 38 40 39 34 31 32 35 37 34 30 25 24
0 0 0 0 0 0 0 0 0 1 3 5 7 11 15 18 20 22 22 20 17 15 14 14 14 17 23 26 27 28 30 31 34 35 33 30 28 29 30 31 30 25 22 21
0 0 0 0 0 0 0 0 0 1 3 6 8 12 16 20 23 24 22 20 16 14 13 14 15 18 22 26 28 29 29 29 31 31 29 27 26 25 25 25 23 20 18 18
0 0 0 0 0 0 0 0 0 1 2 5 9 12 16 19 21 20 19 18 16 14 16 19 20 20 20 22 25 27 28 29 30 28 25 24 24 23 21 20 18 17 16 16
0 0 0 0 0 0 0 0 0 0 1 5 8 10 13 16 16 15 14 16 17 17 20 22 22 21 20 21 23 25 26 27 28 28 25 22 22 21 18 15 14 14 14 14
0 0 0 0 0 0 0 1 1 1 2 4 6 7 10 13 13 12 13 14 17 18 20 20 19 20 20 21 22 24 23 23 25 27 24 20 18 16 13 12 12 12 12 12
0 0 0 0 0 0 0 1 2 3 3 4 5 6 8 9 9 11 12 14 14 16 17 17 17 17 17 17 19 20 18 18 19 20 19 16 14 12 10 9 10 10 10 10
0 0 0 0 0 0 0 1 2 3 3 3 4 6 7 6 6 8 11 12 12 13 14 14 15 15 13 12 12 13 13 13 13 13 14 13 12 11 8 7 8 9 9 9
0 0 0 0 0 0 0 1 2 2 2 3 4 4 4 3 3 5 7 10 11 13 13 13 14 13 11 8 6 6 7 8 8 9 10 11 11 10 7 5 4 5 6 6
0 0 0 0 0 0 0 0 1 1 1 1 2 3 3 2 2 2 4 7 11 13 13 13 13 13 10 7 4 4 4 5 6 6 8 9 9 8 6 4 2 2 3 3
Wind_Speed
2 2 4 8 8 8 5 4 5 7 5 1 3 4 10 12 11 12 12 13 14 14 12 12 14 14 13 11 11 10 10 9 7 4 4 3 3 3 2 3 5 5 5 5
3 5 11 7 5 5 4 4 5 6 5 1 3 4 7 13 15 15 16 16 15 12 10 12 12 13 13 13 12 10 10 10 8 6 4 3 3 3 3 3 4 5 5 5
7 9 6 5 5 5 5 4 4 4 5 4 2 3 3 5 5 7 10 12 14 16 16 15 15 14 14 13 14 12 10 10 9 7 4 3 2 1 1 2 3 4 5 5
6 7 5 5 6 5 5 5 3 2 1 3 1 1 5 4 1 5 7 8 11 13 14 14 15 15 15 15 13 11 11 10 9 8 6 6 5 5 5 4 3 4 5 5
6 4 4 5 7 4 6 3 2 2 2 1 1 3 6 1 2 6 7 8 10 12 14 16 16 16 15 14 13 11 11 10 9 9 8 7 6 5 3 3 4 4 4 5
7 5 5 6 5 3 2 3 5 4 4 2 5 4 5 4 7 7 8 10 10 11 12 12 12 11 11 11 11 11 11 11 10 10 9 8 7 6 5 5 5 4 3 3
7 7 5 3 2 3 3 5 4 5 3 6 3 4 7 6 6 8 8 9 9 9 9 9 10 12 12 13 12 12 12 11 11 10 9 9 8 7 7 6 6 5 4 3
3 7 5 3 5 5 3 9 8 5 5 5 2 3 6 5 4 4 4 5 7 9 9 10 11 12 13 14 14 13 14 12 12 11 10 9 8 6 5 6 6 6 5 5
4 7 6 4 4 5 3 4 9 7 3 1 4 3 4 2 1 1 1 2 4 7 9 9 9 9 10 12 13 14 14 12 12 12 10 9 8 7 6 6 6 5 4 5
5 4 7 5 3 2 5 5 5 5 4 2 4 3 4 3 2 1 2 3 2 3 6 8 8 8 8 9 10 10 11 12 11 11 10 9 8 8 7 6 5 5 5 4
3 3 6 4 1 2 2 2 4 3 5 6 4 6 6 8 6 6 4 4 3 3 4 6 7 7 7 7 8 9 9 9 9 9 9 8 8 7 6 6 6 6 5 5
2 5 2 6 6 2 3 3 5 4 4 5 4 7 4 6 6 5 4 4 2 2 1 3 5 5 5 7 7 8 8 8 9 9 7 7 7 7 6 6 6 5 5 5
3 6 4 8 9 8 4 2 2 4 3 3 4 6 2 2 3 3 5 5 4 4 2 2 3 4 4 5 7 7 7 8 8 8 7 7 7 7 7 6 5 5 5 5
5 5 5 5 5 4 5 7 4 3 2 2 5 5 3 2 3 2 3 4 4 4 3 3 3 2 3 3 5 7 8 8 8 8 8 7 7 8 8 7 6 5 5 5
6 3 1 3 4 2 4 7 6 1 3 5 5 5 6 5 6 5 4 5 4 4 3 3 3 2 1 2 2 5 6 6 8 8 8 8 6 6 6 6 5 5 5 6
4 2 2 4 4 4 5 5 5 3 1 2 1 3 3 3 3 3 5 6 5 4 4 3 3 2 1 3 4 4 6 6 7 7 7 6 5 5 6 6 5 5 5 5
1 3 2 4 6 5 4 3 2 2 3 1 3 4 1 2 3 5 5 6 5 4 4 3 2 2 2 3 4 4 5 6 6 6 5 5 5 4 6 6 5 5 5 4
4 3 3 1 2 4 8 3 1 2 3 3 1 1 3 3 2 1 2 4 3 3 3 3 2 2 1 1 2 3 4 6 7 6 5 6 6 5 5 5 5 4 4 4
7 7 4 3 2 6 5 3 0 1 2 3 2 1 1 3 5 4 1 2 3 3 3 3 3 2 2 1 2 3 4 5 5 5 5 6 6 6 5 5 4 4 4 3
3 5 5 4 4 6 6 5 2 4 1 3 2 2 1 4 2 3 2 1 2 1 1 2 2 2 2 1 1 3 4 5 5 5 5 5 6 6 5 5 4 3 3 4
3 1 3 4 5 6 5 5 3 3 5 3 1 1 1 1 4 4 2 0 0 1 1 2 2 2 1 1 3 3 3 4 5 5 5 4 5 5 5 4 3 3 3 3
3 2 3 3 4 7 3 2 2 5 3 1 0 0 0 0 1 2 1 2 2 2 2 2 2 1 1 1 3 3 2 3 3 4 4 4 4 4 4 3 3 2 3 3
1 4 4 6 7 5 1 2 3 3 2 1 1 1 1 1 1 1 1 2 2 2 2 1 2 1 1 1 2 2 1 1 2 3 3 3 3 3 3 3 3 3 3 4
4 2 1 1 2 2 1 1 2 1 1 1 1 1 1 2 1 2 2 2 2 2 2 2 2 1 1 1 1 1 1 1 2 2 2 2 3 2 2 2 3 4 4 4
4 3 2 2 4 3 3 3 2 1 1 2 1 0 2 3 2 2 2 3 3 2 1 2 2 2 1 0 1 1 0 1 1 1 2 2 2 3 2 2 2 4 4 5
4 4 4 6 6 3 5 4 2 1 1 1 2 2 1 2 2 1 2 2 2 2 1 1 1 1 1 0 1 1 0 1 2 1 2 2 2 2 2 2 1 2 4 5
Wind_Direction
281 93 238 234 215 213 220 246 269 276 272 241 230 196 183 188 188 183 180 179 183 187 179 172 173 172 169 169 169 169 171 176 171 168 172 175 183 189 187 191 190 188 187 182
352 265 240 229 229 236 242 272 280 289 285 252 240 237 192 189 191 189 184 182 182 177 170 174 173 173 174 175 175 173 175 177 177 180 178 176 170 183 189 195 190 194 193 186
218 245 250 237 242 236 250 232 246 263 314 354 50 343 253 222 192 195 192 184 180 177 178 178 177 178 178 181 180 180 179 179 180 177 166 161 136 142 188 204 200 205 197 192
240 251 266 256 249 226 253 241 211 211 47 299 122 246 281 250 194 197 196 183 186 182 179 180 179 179 183 186 182 180 179 179 182 177 174 173 179 190 201 197 198 204 200 195
255 258 255 249 243 221 235 237 199 190 147 316 320 141 278 246 215 220 196 185 189 185 180 185 186 185 184 182 181 181 179 182 182 182 182 182 192 197 192 186 192 203 209 205
255 261 227 227 238 211 210 31 18 43 75 263 240 168 260 225 215 212 205 195 191 193 189 188 186 179 180 181 181 180 180 186 185 185 185 188 194 193 187 191 195 201 206 212
297 294 277 241 290 327 80 83 30 356 0 250 238 153 239 230 208 198 200 202 194 188 189 185 180 181 182 181 183 182 184 189 187 187 191 194 196 196 197 198 197 195 199 208
259 287 276 253 199 203 200 144 161 196 225 268 307 199 237 218 202 180 174 181 174 182 186 180 183 185 185 185 184 184 188 191 192 193 195 197 195 197 203 202 199 199 201 206
199 258 277 257 226 166 196 194 175 154 198 247 279 280 307 325 29 74 136 144 155 171 180 180 181 180 183 187 189 189 189 191 192 195 193 194 196 196 202 202 201 201 204 207
167 253 290 296 5 334 175 167 99 119 153 229 278 252 233 253 244 196 163 139 145 174 179 180 179 178 184 189 190 187 188 191 191 191 194 196 195 195 196 195 198 200 202 205
124 162 299 342 334 275 1 66 112 130 157 162 230 263 222 193 182 172 178 152 159 168 177 181 182 178 180 176 174 180 186 189 189 193 195 196 192 192 194 194 198 203 205 200
47 117 269 272 269 235 171 174 143 155 233 174 177 257 267 177 171 164 153 129 117 111 136 173 170 167 170 176 179 181 182 187 191 190 187 190 186 185 191 197 200 201 203 203
62 87 37 343 343 356 13 3 122 138 136 162 173 257 308 115 125 141 127 112 102 97 76 99 133 155 173 177 181 183 182 187 187 181 179 183 186 186 191 196 194 197 201 202
79 96 142 189 236 293 325 329 345 92 130 208 212 228 273 164 147 147 127 118 110 109 101 84 87 114 164 175 185 183 188 184 180 177 178 185 193 194 195 195 192 196 199 202
76 95 227 236 257 314 318 317 325 333 197 194 226 208 228 202 179 173 148 128 123 118 114 110 103 97 117 154 176 179 178 178 178 177 182 192 198 199 194 191 194 199 205 209
58 95 16 329 328 341 321 314 316 317 317 220 190 250 233 188 140 132 140 140 147 146 145 139 126 108 143 165 179 171 170 170 168 175 185 186 184 194 197 196 194 196 204 207
29 99 74 291 310 352 302 274 306 341 333 225 211 228 182 126 150 165 166 156 163 162 157 150 149 183 183 181 176 176 181 167 163 170 176 176 182 193 204 195 188 196 203 201
174 143 148 229 0 246 245 256 115 89 13 10 62 166 163 164 183 184 154 146 163 166 157 152 158 169 174 202 176 171 163 162 164 169 176 183 184 190 185 180 189 198 200 201
172 158 152 152 212 266 279 289 358 111 342 349 60 54 61 70 54 22 14 142 165 175 166 166 165 171 171 172 184 154 150 155 159 172 183 189 183 179 176 185 201 205 201 208
96 126 141 161 189 231 248 287 307 99 307 316 56 81 76 71 69 272 296 75 70 99 136 143 139 125 122 165 163 140 155 157 173 185 191 191 187 184 189 198 207 207 206 216
15 53 163 183 212 247 262 299 23 128 227 268 104 140 152 172 206 216 221 199 140 137 110 108 111 107 124 130 117 124 153 177 187 182 185 192 188 189 190 195 202 200 201 210
203 191 207 176 202 243 281 32 133 210 231 215 74 273 49 291 183 177 188 178 150 107 91 91 99 91 81 102 113 127 164 197 175 166 176 192 192 197 190 189 204 205 201 206
223 199 199 195 213 232 236 171 213 191 187 233 274 286 117 101 205 192 168 156 152 139 126 108 114 102 20 49 118 137 233 205 154 151 177 191 193 197 189 186 205 219 213 211
300 340 72 337 284 294 313 355 348 61 150 234 222 244 165 160 214 209 178 176 172 154 167 164 139 113 3 355 13 199 216 170 131 166 191 190 189 201 204 197 201 208 218 214
267 340 359 297 282 325 329 322 310 335 20 7 346 163 183 167 186 203 199 190 185 179 194 173 162 171 218 275 290 268 144 121 162 197 195 194 200 199 208 217 215 215 224 214
234 215 208 240 243 225 257 271 288 332 325 343 340 323 248 178 185 185 199 199 185 180 172 168 165 173 217 233 290 299 271 172 184 221 219 202 201 199 200 203 246 256 235 239